ELEKTRO-L 2

Last updated on Nov. 18, 2019, 4:20 a.m. UTC

1 41105U 15074A   19320.93978102 -.00000090  00000-0  00000-0 0  9992
2 41105   0.6936 101.3039 0000858 119.7050 249.1499  1.00273199 14418
UTC
Height (km)
Latitude
Longitude
Inclination
Orbital Period
UTC large
Height (km)
Speed (km/s)
/
Latitude / Longitude
Inclination (degrees)
Orbital Period (minutes)
Azimuth
Elevation
Range (km)
Doppler Factor
iOS Compass Heading
iOS Angle

Next 30 passes for location: Hong Kong

Rise time Rise Azimuth (degrees) Set time Set Azimuth (degrees) Duration Max altitude (degrees)

No matching passes for this satellites